sat.trackr.live / text

‹ back to catalog

STARLINK-3971

NORAD 52642 · 2022-052AW

PAYLOAD ACTIVE UNKNOWN

§ Identity

Operator
Country
US
Launch date
2022-05-14
Launch site
AFETR
Launch vehicle
Mass (kg)
RCS (m²)

Purposes: comms

External: N2YO · Heavens-Above · Gunter

§ Orbital elements

Epoch: 2026-05-24T18:46:22.569888Z

Period
95.44 min
Inclination
53.2153°
Eccentricity
0.0001144
Mean motion
15.08837253 rev/d
Perigee alt
539.0 km
Apogee alt
540.5 km
Semi-major
6,917.9 km
B*
2.5539e-5
RAAN
277.5273°
Arg perigee
94.0139°
Mean anomaly
266.0984°
Rev number
22,261

§ Raw data

STARLINK-39711 52642U 22052AW  26144.78220567  .00000119  00000+0  25539-4 0  99922 52642  53.2153 277.5273 0001144  94.0139 266.0984 15.08837253222619

JSON: /api/v1/satellites/52642 · /tle

For live sub-satellite position, see the globe view (requires WebGL).

§ Visibility from observer

Set your observer location to see the next 7 days of passes ≥ 10°. The values pass through the URL so the page stays shareable.

No JS? Fill the form by hand. The geolocation button needs JavaScript.